Regional Weather Roundup
Issued by NWS Goodland, KS

Home | Current Version | Previous Version | Graphics & Text | Print | Product List | Glossary On
Versions: 1 2 3 4 5 6 7 8 9 10 11 12 13 14 15 16 17 18 19 20 21 22 23 24 25 26 27 28 29 30 31 32 33 34 35 36 37 38 39 40 41 42 43 44 45 46 47 48 49 50
000
ASUS43 KGLD 192008
RWRGLD

GOODLAND FORECAST AREA HOURLY WEATHER ROUNDUP
NATIONAL WEATHER SERVICE GOODLAND KS
200 PM MDT TUE AUG 19 2014

...OFFICIAL OBSERVATIONS...

CITY           SKY/WX    TMP DP  RH WIND       PRES   REMARKS
GOODLAND KS    MOSUNNY   94  54  25 SE10      29.85F
HILL CITY KS   PTSUNNY   90  65  43 SE10      29.81F
IMPERIAL NEB   MOSUNNY   89  55  31 E10       29.83F
MCCOOK NEB     MOSUNNY   91  59  33 SE9       29.82F
AKRON CO       SUNNY     90  47  22 S14G23    29.90F
BURLINGTON CO  SUNNY     92  49  22 S13       29.87F
LIMON CO       SUNNY     91  38  15 VRB7      29.93F
$$

...UNOFFICIAL OBSERVATIONS...

CITY           SKY/WX    TMP DP  RH WIND       PRES   REMARKS
COLBY KS       SUNNY     90  70  51 E7        29.84F
GOVE KS          N/A     96  32  10 CALM        N/A
LENORA KS        N/A     86  32  14 CALM        N/A
NORTON KS      SUNNY     90  57  33 SE10G18   29.82F
OBERLIN KS     FAIR      90  59  35 S7        29.82F
SHARON SPRINGS   N/A     96  55  25 S9G21       N/A
TRENTON NEB      N/A     92  32  12 SE13        N/A
KIT CARSON CO    N/A     93  51  23 MISG        N/A
YUMA CO          N/A     88  53  29 SE8         N/A
$$


USA.gov is the U.S. government's official web portal to all federal, state and local government web resources and services.